START_TIME,STEP,MOV.,M34,t_acc.,L5,t_acc.,L18,t_acc.,L14,t_acc.
1979-07-19 23:00:24.520 ,1,0,0.,12.0,0.,12.0,0.,12.0,0.,12.0
1979-07-19 23:00:36.520 ,1,0,0.,12.0,0.,12.0,0.,12.0,0.,12.0
1979-07-19 23:01:12.510 ,2,0,1.,12.0,0.,12.0,0.,12.0,0.,12.0
1979-07-19 23:01:24.520 ,2,0,0.,12.0,0.,12.0,0.,12.0,0.,12.0
1979-07-19 23:01:36.520 ,3,1,1.,12.0,0.,12.0,0.,12.0,0.,12.0
1979-07-19 23:01:48.520 ,3,1,0.,12.0,0.,12.0,0.,12.0,0.,12.0
1979-07-19 23:02:00.510 ,3,0,1.,12.0,0.,12.0,0.,12.0,0.,12.0
1979-07-19 23:02:12.520 ,3,0,2.,12.0,0.,12.0,0.,12.0,0.,12.0
1979-07-19 23:02:24.510 ,4,1,1.,12.0,0.,12.0,0.,12.0,0.,12.0
1979-07-19 23:02:36.520 ,4,1,0.,12.0,0.,12.0,0.,12.0,0.,12.0
1979-07-19 23:02:48.510 ,4,0,0.,12.0,0.,12.0,0.,12.0,0.,12.0
1979-07-19 23:03:00.520 ,4,0,1.,12.0,0.,12.0,0.,12.0,0.,12.0
1979-07-19 23:03:12.510 ,5,1,1.,12.0,0.,12.0,0.,12.0,0.,12.0
1979-07-19 23:03:24.520 ,5,1,1.,12.0,0.,12.0,0.,12.0,0.,12.0
1979-07-19 23:03:36.510 ,5,0,0.,12.0,0.,12.0,0.,12.0,0.,12.0
1979-07-19 23:03:48.520 ,5,0,0.,12.0,0.,12.0,0.,12.0,0.,12.0
1979-07-19 23:04:00.510 ,6,1,0.,12.0,0.,12.0,0.,12.0,0.,12.0
1979-07-19 23:04:12.520 ,6,1,0.,12.0,0.,12.0,0.,12.0,0.,12.0
1979-07-19 23:04:24.520 ,6,0,0.,12.0,0.,12.0,0.,12.0,0.,12.0
1979-07-19 23:04:36.520 ,6,0,0.,12.0,0.,12.0,0.,12.0,0.,12.0
1979-07-19 23:04:48.520 ,7,1,0.,12.0,0.,12.0,0.,12.0,0.,12.0
1979-07-19 23:05:00.520 ,7,1,0.,12.0,0.,12.0,0.,12.0,0.,12.0
1979-07-19 23:05:12.520 ,7,0,0.,12.0,0.,12.0,0.,12.0,0.,12.0
1979-07-19 23:05:24.520 ,7,0,0.,12.0,0.,12.0,0.,12.0,0.,12.0
1979-07-19 23:05:36.520 ,7,1,0.,12.0,0.,12.0,0.,12.0,0.,12.0
1979-07-19 23:05:48.520 ,7,1,0.,12.0,0.,12.0,0.,12.0,0.,12.0
1979-07-19 23:06:00.520 ,7,0,0.,12.0,0.,12.0,0.,12.0,0.,12.0
1979-07-19 23:06:12.520 ,7,0,0.,12.0,0.,12.0,0.,12.0,0.,12.0
1979-07-19 23:06:24.520 ,6,1,0.,12.0,0.,12.0,0.,12.0,0.,12.0
1979-07-19 23:06:36.520 ,6,1,0.,12.0,0.,12.0,0.,12.0,0.,12.0
1979-07-19 23:06:48.520 ,6,0,0.,12.0,0.,12.0,0.,12.0,0.,12.0
1979-07-19 23:07:00.520 ,6,0,0.,12.0,0.,12.0,0.,12.0,0.,12.0
1979-07-19 23:07:12.520 ,5,1,0.,12.0,0.,12.0,0.,12.0,0.,12.0
1979-07-19 23:07:24.520 ,5,1,0.,12.0,0.,12.0,0.,12.0,0.,12.0
1979-07-19 23:07:36.520 ,5,0,0.,12.0,0.,12.0,0.,12.0,0.,12.0
1979-07-19 23:07:48.520 ,5,0,0.,12.0,0.,12.0,0.,12.0,0.,12.0
1979-07-19 23:08:00.520 ,4,1,0.,12.0,0.,12.0,0.,12.0,0.,12.0
1979-07-19 23:08:12.520 ,4,1,0.,12.0,0.,12.0,0.,12.0,0.,12.0
1979-07-19 23:08:24.520 ,4,0,0.,12.0,0.,12.0,0.,12.0,0.,12.0
1979-07-19 23:08:36.520 ,4,0,0.,12.0,0.,12.0,0.,12.0,0.,12.0
1979-07-19 23:08:48.520 ,3,1,0.,12.0,0.,12.0,0.,12.0,0.,12.0
1979-07-19 23:09:00.520 ,3,1,0.,12.0,0.,12.0,0.,12.0,0.,12.0
1979-07-19 23:09:12.520 ,3,0,0.,12.0,0.,12.0,0.,12.0,0.,12.0
1979-07-19 23:09:24.520 ,3,0,2.,12.0,0.,12.0,0.,12.0,0.,12.0
1979-07-19 23:09:36.520 ,2,1,0.,12.0,0.,12.0,0.,12.0,0.,12.0
1979-07-19 23:09:48.520 ,2,1,0.,12.0,0.,12.0,0.,12.0,0.,12.0
1979-07-19 23:10:00.520 ,2,0,1.,12.0,0.,12.0,0.,12.0,0.,12.0
1979-07-19 23:10:12.520 ,2,0,0.,12.0,0.,12.0,0.,12.0,0.,12.0
1979-07-19 23:10:24.520 ,1,1,0.,12.0,0.,12.0,0.,12.0,0.,12.0
1979-07-19 23:10:36.520 ,1,1,0.,12.0,0.,12.0,0.,12.0,0.,12.0
1979-07-19 23:10:48.520 ,1,0,0.,12.0,0.,12.0,0.,12.0,0.,12.0
1979-07-19 23:11:00.520 ,1,0,0.,12.0,0.,12.0,0.,12.0,0.,12.0
1979-07-19 23:11:12.520 ,0,1,0.,12.0,0.,12.0,0.,12.0,0.,12.0
1979-07-19 23:11:24.520 ,0,1,0.,12.0,0.,12.0,0.,12.0,0.,12.0
1979-07-19 23:11:36.520 ,0,0,0.,12.0,0.,12.0,0.,12.0,0.,12.0
1979-07-19 23:11:48.520 ,0,0,0.,12.0,0.,12.0,0.,12.0,0.,12.0
1979-07-19 23:12:00.520 ,0,1,0.,12.0,0.,12.0,0.,12.0,0.,12.0
1979-07-19 23:12:12.520 ,0,1,0.,12.0,0.,12.0,0.,12.0,0.,12.0
1979-07-19 23:12:24.520 ,0,0,0.,12.0,0.,12.0,0.,12.0,0.,12.0
1979-07-19 23:12:36.520 ,0,0,0.,12.0,0.,12.0,0.,12.0,0.,12.0
1979-07-19 23:12:48.520 ,1,1,0.,12.0,0.,12.0,0.,12.0,0.,12.0
1979-07-19 23:13:00.520 ,1,1,0.,12.0,0.,12.0,0.,12.0,0.,12.0
1979-07-19 23:13:12.520 ,1,0,0.,12.0,0.,12.0,0.,12.0,0.,12.0
1979-07-19 23:13:24.520 ,1,0,0.,12.0,0.,12.0,0.,12.0,0.,12.0
1979-07-19 23:13:36.520 ,2,1,0.,12.0,0.,12.0,0.,12.0,0.,12.0
1979-07-19 23:13:48.520 ,2,1,0.,12.0,0.,12.0,0.,12.0,0.,12.0
1979-07-19 23:14:00.520 ,2,0,0.,12.0,0.,12.0,0.,12.0,0.,12.0
1979-07-19 23:14:12.520 ,2,0,0.,12.0,0.,12.0,0.,12.0,0.,12.0
1979-07-19 23:14:24.520 ,3,1,1.,12.0,0.,12.0,0.,12.0,0.,12.0
1979-07-19 23:14:36.520 ,3,1,1.,12.0,0.,12.0,0.,12.0,0.,12.0
1979-07-19 23:14:48.520 ,3,0,2.,12.0,0.,12.0,0.,12.0,0.,12.0
1979-07-19 23:15:00.520 ,3,0,1.,12.0,0.,12.0,0.,12.0,0.,12.0
1979-07-19 23:15:12.520 ,4,1,1.,12.0,0.,12.0,0.,12.0,0.,12.0
1979-07-19 23:15:24.520 ,4,1,0.,12.0,0.,12.0,0.,12.0,0.,12.0
1979-07-19 23:15:36.520 ,4,0,0.,12.0,0.,12.0,0.,12.0,0.,12.0
1979-07-19 23:15:48.520 ,4,0,1.,12.0,0.,12.0,0.,12.0,0.,12.0
1979-07-19 23:16:00.520 ,5,1,0.,12.0,0.,12.0,0.,12.0,0.,12.0
1979-07-19 23:16:12.520 ,5,1,0.,12.0,0.,12.0,0.,12.0,0.,12.0
1979-07-19 23:16:24.520 ,5,0,0.,12.0,0.,12.0,0.,12.0,0.,12.0
1979-07-19 23:16:36.520 ,5,0,0.,12.0,0.,12.0,0.,12.0,0.,12.0
1979-07-19 23:16:48.520 ,6,1,0.,12.0,0.,12.0,0.,12.0,0.,12.0
1979-07-19 23:17:00.520 ,6,1,0.,12.0,0.,12.0,0.,12.0,0.,12.0
1979-07-19 23:17:12.510 ,6,0,0.,12.0,0.,12.0,0.,12.0,0.,12.0
1979-07-19 23:17:24.510 ,6,0,0.,12.0,0.,12.0,0.,12.0,0.,12.0
1979-07-19 23:17:36.510 ,7,1,0.,12.0,0.,12.0,0.,12.0,0.,12.0
1979-07-19 23:17:48.510 ,7,1,0.,12.0,0.,12.0,0.,12.0,0.,12.0
1979-07-19 23:18:00.510 ,7,0,0.,12.0,0.,12.0,0.,12.0,0.,12.0
1979-07-19 23:18:12.510 ,7,0,0.,12.0,0.,12.0,0.,12.0,0.,12.0
1979-07-19 23:18:24.510 ,7,1,0.,12.0,0.,12.0,0.,12.0,0.,12.0
1979-07-19 23:18:36.510 ,7,1,0.,12.0,0.,12.0,0.,12.0,0.,12.0
1979-07-19 23:18:48.510 ,7,0,0.,12.0,0.,12.0,0.,12.0,0.,12.0
1979-07-19 23:19:00.510 ,7,0,0.,12.0,0.,12.0,0.,12.0,0.,12.0
1979-07-19 23:19:12.510 ,6,1,0.,12.0,0.,12.0,0.,12.0,0.,12.0
1979-07-19 23:19:24.510 ,6,1,0.,12.0,0.,12.0,0.,12.0,0.,12.0
1979-07-19 23:19:36.510 ,6,0,0.,12.0,0.,12.0,0.,12.0,0.,12.0
1979-07-19 23:19:48.510 ,6,0,0.,12.0,0.,12.0,0.,12.0,0.,12.0
1979-07-19 23:20:00.510 ,5,1,0.,12.0,0.,12.0,0.,12.0,0.,12.0
1979-07-19 23:20:12.510 ,5,1,0.,12.0,0.,12.0,0.,12.0,0.,12.0
1979-07-19 23:20:24.510 ,5,0,0.,12.0,0.,12.0,0.,12.0,0.,12.0
1979-07-19 23:20:36.510 ,5,0,0.,12.0,0.,12.0,0.,12.0,0.,12.0
1979-07-19 23:20:48.510 ,4,1,0.,12.0,0.,12.0,0.,12.0,0.,12.0
1979-07-19 23:21:00.510 ,4,1,1.,12.0,0.,12.0,0.,12.0,0.,12.0
1979-07-19 23:21:12.510 ,4,0,1.,12.0,0.,12.0,0.,12.0,0.,12.0
1979-07-19 23:21:24.510 ,4,0,0.,12.0,0.,12.0,0.,12.0,0.,12.0
1979-07-19 23:21:36.510 ,3,1,1.,12.0,0.,12.0,0.,12.0,0.,12.0
1979-07-19 23:21:48.510 ,3,1,1.,12.0,0.,12.0,0.,12.0,0.,12.0
1979-07-19 23:22:00.510 ,3,0,2.,12.0,0.,12.0,0.,12.0,0.,12.0
1979-07-19 23:22:12.510 ,3,0,0.,12.0,0.,12.0,0.,12.0,0.,12.0
1979-07-19 23:22:24.510 ,2,1,3.,12.0,0.,12.0,0.,12.0,0.,12.0
1979-07-19 23:22:36.510 ,2,1,1.,12.0,0.,12.0,0.,12.0,0.,12.0
1979-07-19 23:22:48.510 ,2,0,0.,12.0,0.,12.0,0.,12.0,0.,12.0
1979-07-19 23:23:00.510 ,2,0,0.,12.0,0.,12.0,0.,12.0,1.,12.0
1979-07-19 23:23:12.510 ,1,1,0.,12.0,0.,12.0,0.,12.0,0.,12.0
1979-07-19 23:23:24.510 ,1,1,0.,12.0,0.,12.0,0.,12.0,0.,12.0
1979-07-19 23:23:36.510 ,1,0,0.,12.0,0.,12.0,0.,12.0,0.,12.0
1979-07-19 23:23:48.510 ,1,0,0.,12.0,0.,12.0,0.,12.0,0.,12.0
1979-07-19 23:24:00.510 ,0,1,0.,12.0,0.,12.0,0.,12.0,0.,12.0
1979-07-19 23:24:12.510 ,0,1,0.,12.0,0.,12.0,0.,12.0,0.,12.0
1979-07-19 23:24:24.510 ,0,0,0.,12.0,0.,12.0,0.,12.0,0.,12.0
1979-07-19 23:24:36.510 ,0,0,0.,12.0,0.,12.0,0.,12.0,0.,12.0
1979-07-19 23:24:48.510 ,0,1,0.,12.0,0.,12.0,0.,12.0,0.,12.0
1979-07-19 23:25:00.510 ,0,1,1.,12.0,0.,12.0,0.,12.0,0.,12.0
1979-07-19 23:25:12.510 ,0,0,0.,12.0,0.,12.0,0.,12.0,0.,12.0
1979-07-19 23:25:24.510 ,0,0,1.,12.0,0.,12.0,0.,12.0,0.,12.0
1979-07-19 23:25:36.510 ,1,1,0.,12.0,0.,12.0,0.,12.0,0.,12.0
1979-07-19 23:25:48.510 ,1,1,0.,12.0,0.,12.0,0.,12.0,0.,12.0
1979-07-19 23:26:00.510 ,1,0,0.,12.0,0.,12.0,0.,12.0,0.,12.0
1979-07-19 23:26:12.510 ,1,0,0.,12.0,0.,12.0,0.,12.0,0.,12.0
1979-07-19 23:26:24.510 ,2,1,0.,12.0,0.,12.0,0.,12.0,0.,12.0
1979-07-19 23:26:36.510 ,2,1,0.,12.0,0.,12.0,0.,12.0,0.,12.0
1979-07-19 23:26:48.510 ,2,0,0.,12.0,0.,12.0,0.,12.0,0.,12.0
1979-07-19 23:27:00.510 ,2,0,0.,12.0,0.,12.0,0.,12.0,0.,12.0
1979-07-19 23:27:12.510 ,3,1,0.,12.0,0.,12.0,0.,12.0,0.,12.0
1979-07-19 23:27:24.510 ,3,1,0.,12.0,0.,12.0,0.,12.0,0.,12.0
1979-07-19 23:27:36.510 ,3,0,0.,12.0,0.,12.0,0.,12.0,0.,12.0
1979-07-19 23:27:48.510 ,3,0,1.,12.0,0.,12.0,0.,12.0,0.,12.0
1979-07-19 23:28:00.510 ,4,1,2.,12.0,0.,12.0,0.,12.0,0.,12.0
1979-07-19 23:28:12.510 ,4,1,3.,12.0,0.,12.0,0.,12.0,0.,12.0
1979-07-19 23:28:24.510 ,4,0,1.,12.0,0.,12.0,0.,12.0,0.,12.0
1979-07-19 23:28:36.510 ,4,0,1.,12.0,0.,12.0,0.,12.0,0.,12.0
1979-07-19 23:28:48.510 ,5,1,0.,12.0,0.,12.0,0.,12.0,0.,12.0
1979-07-19 23:29:00.510 ,5,1,0.,12.0,0.,12.0,0.,12.0,0.,12.0
1979-07-19 23:29:12.510 ,5,0,0.,12.0,0.,12.0,0.,12.0,0.,12.0
1979-07-19 23:29:24.510 ,5,0,0.,12.0,0.,12.0,0.,12.0,0.,12.0
1979-07-19 23:29:36.510 ,6,1,1.,12.0,0.,12.0,0.,12.0,0.,12.0
1979-07-19 23:29:48.510 ,6,1,0.,12.0,0.,12.0,0.,12.0,0.,12.0
1979-07-19 23:30:00.510 ,6,0,0.,12.0,0.,12.0,0.,12.0,0.,12.0
1979-07-19 23:30:12.510 ,6,0,0.,12.0,0.,12.0,0.,12.0,0.,12.0
1979-07-19 23:30:24.510 ,7,0,0.,12.0,0.,12.0,0.,12.0,0.,12.0
1979-07-19 23:30:36.510 ,7,0,0.,12.0,0.,12.0,0.,12.0,0.,12.0
1979-07-19 23:30:48.510 ,7,0,0.,12.0,0.,12.0,0.,12.0,0.,12.0
1979-07-19 23:31:00.510 ,7,0,0.,12.0,0.,12.0,0.,12.0,0.,12.0
1979-07-19 23:31:12.510 ,4,1,0.,12.0,0.,12.0,0.,12.0,0.,12.0
1979-07-19 23:31:24.510 ,4,1,0.,12.0,0.,12.0,0.,12.0,0.,12.0
1979-07-19 23:31:36.510 ,0,1,0.,12.0,0.,12.0,0.,12.0,0.,12.0
1979-07-19 23:31:48.510 ,0,1,0.,12.0,0.,12.0,0.,12.0,0.,12.0
1979-07-19 23:32:00.510 ,3,1,0.,12.0,0.,12.0,0.,12.0,0.,12.0
1979-07-19 23:32:12.510 ,3,1,0.,12.0,0.,12.0,0.,12.0,0.,12.0
1979-07-19 23:32:24.510 ,7,1,0.,12.0,0.,12.0,0.,12.0,0.,12.0
1979-07-19 23:32:36.510 ,7,1,0.,12.0,0.,12.0,0.,12.0,0.,12.0
1979-07-19 23:32:48.510 ,4,1,0.,12.0,0.,12.0,0.,12.0,0.,12.0
1979-07-19 23:33:00.510 ,4,1,0.,12.0,0.,12.0,0.,12.0,0.,12.0
1979-07-19 23:33:12.510 ,0,1,1.,12.0,0.,12.0,0.,12.0,0.,12.0
1979-07-19 23:33:24.510 ,0,1,0.,12.0,0.,12.0,0.,12.0,0.,12.0
1979-07-19 23:33:36.510 ,3,1,0.,12.0,0.,12.0,0.,12.0,0.,12.0
1979-07-19 23:33:48.510 ,3,1,0.,12.0,0.,12.0,0.,12.0,0.,12.0
1979-07-19 23:34:00.510 ,7,1,0.,12.0,0.,12.0,0.,12.0,0.,12.0
1979-07-19 23:34:12.510 ,7,1,0.,12.0,0.,12.0,0.,12.0,0.,12.0
1979-07-19 23:34:24.510 ,4,1,0.,12.0,0.,12.0,0.,12.0,0.,12.0
1979-07-19 23:34:36.510 ,4,1,0.,12.0,0.,12.0,0.,12.0,0.,12.0
1979-07-19 23:34:48.510 ,0,1,0.,12.0,0.,12.0,0.,12.0,0.,12.0
1979-07-19 23:35:00.510 ,0,1,0.,12.0,0.,12.0,0.,12.0,0.,12.0
1979-07-19 23:35:12.510 ,3,1,0.,12.0,0.,12.0,0.,12.0,0.,12.0
1979-07-19 23:35:24.510 ,3,1,0.,12.0,0.,12.0,0.,12.0,0.,12.0
1979-07-19 23:35:36.510 ,7,1,0.,12.0,0.,12.0,0.,12.0,0.,12.0
1979-07-19 23:35:48.510 ,7,1,0.,12.0,0.,12.0,0.,12.0,0.,12.0
1979-07-19 23:36:00.510 ,4,1,0.,12.0,0.,12.0,0.,12.0,0.,12.0
1979-07-19 23:36:12.510 ,4,1,0.,12.0,0.,12.0,0.,12.0,0.,12.0
1979-07-19 23:36:24.510 ,0,1,0.,12.0,0.,12.0,0.,12.0,0.,12.0
1979-07-19 23:36:36.510 ,0,1,0.,12.0,0.,12.0,0.,12.0,0.,12.0
1979-07-19 23:36:48.510 ,3,1,0.,12.0,0.,12.0,0.,12.0,0.,12.0
1979-07-19 23:37:00.510 ,3,1,0.,12.0,0.,12.0,0.,12.0,0.,12.0
1979-07-19 23:37:12.510 ,7,1,1.,12.0,0.,12.0,0.,12.0,0.,12.0
1979-07-19 23:37:24.510 ,7,1,0.,12.0,0.,12.0,0.,12.0,0.,12.0
1979-07-19 23:37:36.510 ,4,1,0.,12.0,0.,12.0,0.,12.0,0.,12.0
1979-07-19 23:37:48.510 ,4,1,0.,12.0,0.,12.0,0.,12.0,0.,12.0
1979-07-19 23:38:00.510 ,0,1,0.,12.0,0.,12.0,0.,12.0,0.,12.0
1979-07-19 23:38:12.510 ,0,1,0.,12.0,0.,12.0,0.,12.0,0.,12.0
1979-07-19 23:38:24.510 ,3,1,0.,12.0,0.,12.0,0.,12.0,0.,12.0
1979-07-19 23:38:36.510 ,3,1,0.,12.0,0.,12.0,0.,12.0,0.,12.0
1979-07-19 23:38:48.510 ,7,1,0.,12.0,0.,12.0,0.,12.0,0.,12.0
1979-07-19 23:39:00.510 ,7,1,0.,12.0,0.,12.0,0.,12.0,0.,12.0
1979-07-19 23:39:12.510 ,4,1,0.,12.0,0.,12.0,0.,12.0,0.,12.0
1979-07-19 23:39:24.510 ,4,1,0.,12.0,0.,12.0,0.,12.0,0.,12.0
1979-07-19 23:39:36.510 ,0,1,0.,12.0,0.,12.0,0.,12.0,0.,12.0
1979-07-19 23:39:48.510 ,0,1,0.,12.0,0.,12.0,0.,12.0,0.,12.0
1979-07-19 23:40:00.510 ,3,1,0.,12.0,0.,12.0,0.,12.0,0.,12.0
1979-07-19 23:40:12.510 ,3,1,0.,12.0,0.,12.0,0.,12.0,0.,12.0
1979-07-19 23:40:24.510 ,7,1,0.,12.0,0.,12.0,0.,12.0,0.,12.0
1979-07-19 23:40:36.510 ,7,1,0.,12.0,0.,12.0,0.,12.0,0.,12.0
1979-07-19 23:40:48.510 ,4,1,0.,12.0,0.,12.0,0.,12.0,0.,12.0
1979-07-19 23:41:00.510 ,4,1,0.,12.0,0.,12.0,0.,12.0,0.,12.0
1979-07-19 23:41:12.510 ,0,1,0.,12.0,0.,12.0,0.,12.0,0.,12.0
1979-07-19 23:41:24.510 ,0,1,0.,12.0,0.,12.0,0.,12.0,0.,12.0
1979-07-19 23:41:36.510 ,0,0,0.,12.0,0.,12.0,0.,12.0,0.,12.0
1979-07-19 23:41:48.510 ,0,0,0.,12.0,0.,12.0,0.,12.0,0.,12.0
1979-07-19 23:42:00.510 ,0,0,1.,12.0,0.,12.0,0.,12.0,0.,12.0
1979-07-19 23:42:12.510 ,0,0,0.,12.0,0.,12.0,0.,12.0,0.,12.0
1979-07-19 23:42:24.510 ,5,1,0.,12.0,0.,12.0,0.,12.0,0.,12.0
1979-07-19 23:42:36.510 ,5,1,0.,12.0,0.,12.0,0.,12.0,0.,12.0
1979-07-19 23:42:48.510 ,5,0,0.,12.0,0.,12.0,0.,12.0,0.,12.0
1979-07-19 23:43:00.510 ,5,0,1.,12.0,0.,12.0,0.,12.0,0.,12.0
1979-07-19 23:43:12.510 ,4,1,0.,12.0,0.,12.0,0.,12.0,0.,12.0
1979-07-19 23:43:24.510 ,4,1,0.,12.0,0.,12.0,0.,12.0,0.,12.0
1979-07-19 23:43:36.510 ,4,0,0.,12.0,0.,12.0,0.,12.0,0.,12.0
1979-07-19 23:43:48.510 ,4,0,1.,12.0,0.,12.0,0.,12.0,0.,12.0
1979-07-19 23:44:00.510 ,3,1,0.,12.0,0.,12.0,0.,12.0,0.,12.0
1979-07-19 23:44:12.510 ,3,1,0.,12.0,0.,12.0,0.,12.0,0.,12.0
1979-07-19 23:44:24.510 ,3,0,0.,12.0,0.,12.0,0.,12.0,0.,12.0
1979-07-19 23:44:36.510 ,3,0,1.,12.0,0.,12.0,0.,12.0,0.,12.0
1979-07-19 23:44:48.510 ,2,1,0.,12.0,0.,12.0,0.,12.0,0.,12.0
1979-07-19 23:45:00.510 ,2,1,0.,12.0,0.,12.0,0.,12.0,0.,12.0
1979-07-19 23:45:12.510 ,2,0,0.,12.0,0.,12.0,0.,12.0,0.,12.0
1979-07-19 23:45:24.510 ,2,0,0.,12.0,0.,12.0,0.,12.0,0.,12.0
1979-07-19 23:45:36.510 ,1,1,0.,12.0,0.,12.0,0.,12.0,0.,12.0
1979-07-19 23:45:48.510 ,1,1,0.,12.0,0.,12.0,0.,12.0,0.,12.0
1979-07-19 23:46:00.510 ,1,0,0.,12.0,0.,12.0,0.,12.0,0.,12.0
1979-07-19 23:46:12.510 ,1,0,0.,12.0,0.,12.0,0.,12.0,0.,12.0
1979-07-19 23:46:24.510 ,0,1,0.,12.0,0.,12.0,0.,12.0,0.,12.0
1979-07-19 23:46:36.510 ,0,1,0.,12.0,0.,12.0,0.,12.0,0.,12.0
1979-07-19 23:46:48.510 ,0,0,0.,12.0,0.,12.0,0.,12.0,0.,12.0
1979-07-19 23:47:00.510 ,0,0,0.,12.0,0.,12.0,0.,12.0,0.,12.0
1979-07-19 23:47:12.510 ,0,1,0.,12.0,0.,12.0,0.,12.0,0.,12.0
1979-07-19 23:47:24.510 ,0,1,0.,12.0,0.,12.0,0.,12.0,0.,12.0
1979-07-19 23:47:36.510 ,0,0,0.,12.0,0.,12.0,0.,12.0,0.,12.0
1979-07-19 23:47:48.510 ,0,0,0.,12.0,0.,12.0,0.,12.0,0.,12.0
1979-07-19 23:48:00.510 ,1,1,0.,12.0,0.,12.0,0.,12.0,0.,12.0
1979-07-19 23:48:12.510 ,1,1,0.,12.0,0.,12.0,0.,12.0,0.,12.0
1979-07-19 23:48:24.510 ,1,0,0.,12.0,0.,12.0,0.,12.0,0.,12.0
1979-07-19 23:48:36.510 ,1,0,0.,12.0,0.,12.0,0.,12.0,0.,12.0
1979-07-19 23:48:48.510 ,2,1,0.,12.0,0.,12.0,0.,12.0,0.,12.0
1979-07-19 23:49:00.510 ,2,1,1.,12.0,0.,12.0,0.,12.0,0.,12.0
1979-07-19 23:49:12.510 ,2,0,0.,12.0,0.,12.0,0.,12.0,0.,12.0
1979-07-19 23:49:24.510 ,2,0,0.,12.0,0.,12.0,0.,12.0,0.,12.0
1979-07-19 23:49:36.510 ,3,1,0.,12.0,0.,12.0,0.,12.0,0.,12.0
1979-07-19 23:49:48.510 ,3,1,2.,12.0,0.,12.0,0.,12.0,0.,12.0
1979-07-19 23:50:00.510 ,3,0,1.,12.0,0.,12.0,0.,12.0,0.,12.0
1979-07-19 23:50:12.510 ,3,0,1.,12.0,0.,12.0,0.,12.0,0.,12.0
1979-07-19 23:50:24.510 ,4,1,1.,12.0,0.,12.0,0.,12.0,0.,12.0
1979-07-19 23:50:36.510 ,4,1,1.,12.0,0.,12.0,0.,12.0,0.,12.0
1979-07-19 23:50:48.510 ,4,0,1.,12.0,1.,12.0,0.,12.0,0.,12.0
1979-07-19 23:51:00.510 ,4,0,0.,12.0,0.,12.0,0.,12.0,0.,12.0
1979-07-19 23:51:12.510 ,5,1,2.,12.0,0.,12.0,0.,12.0,0.,12.0
1979-07-19 23:51:24.510 ,5,1,0.,12.0,0.,12.0,0.,12.0,0.,12.0
1979-07-19 23:51:36.510 ,5,0,0.,12.0,0.,12.0,0.,12.0,0.,12.0
1979-07-19 23:51:48.510 ,5,0,0.,12.0,0.,12.0,0.,12.0,0.,12.0
1979-07-19 23:52:00.510 ,6,1,1.,12.0,0.,12.0,0.,12.0,0.,12.0
1979-07-19 23:52:12.510 ,6,1,0.,12.0,0.,12.0,0.,12.0,0.,12.0
1979-07-19 23:52:24.510 ,6,0,0.,12.0,0.,12.0,0.,12.0,0.,12.0
1979-07-19 23:52:36.510 ,6,0,0.,12.0,0.,12.0,0.,12.0,0.,12.0
1979-07-19 23:52:48.510 ,7,1,0.,12.0,0.,12.0,0.,12.0,0.,12.0
1979-07-19 23:53:00.510 ,7,1,0.,12.0,0.,12.0,0.,12.0,0.,12.0
1979-07-19 23:53:12.510 ,7,0,0.,12.0,0.,12.0,0.,12.0,0.,12.0
1979-07-19 23:53:24.510 ,7,0,0.,12.0,0.,12.0,0.,12.0,0.,12.0
1979-07-19 23:53:36.510 ,7,1,0.,12.0,0.,12.0,0.,12.0,0.,12.0
1979-07-19 23:53:48.510 ,7,1,0.,12.0,0.,12.0,0.,12.0,0.,12.0
1979-07-19 23:54:00.510 ,7,0,0.,12.0,0.,12.0,0.,12.0,0.,12.0
1979-07-19 23:54:12.510 ,7,0,0.,12.0,0.,12.0,0.,12.0,0.,12.0
1979-07-19 23:54:24.510 ,6,1,0.,12.0,0.,12.0,0.,12.0,0.,12.0
1979-07-19 23:54:36.510 ,6,1,0.,12.0,0.,12.0,0.,12.0,0.,12.0
1979-07-19 23:54:48.510 ,6,0,0.,12.0,0.,12.0,0.,12.0,0.,12.0
1979-07-19 23:55:00.510 ,6,0,0.,12.0,0.,12.0,0.,12.0,0.,12.0
1979-07-19 23:55:12.510 ,5,1,0.,12.0,0.,12.0,0.,12.0,0.,12.0
1979-07-19 23:55:24.510 ,5,1,0.,12.0,0.,12.0,0.,12.0,0.,12.0
1979-07-19 23:55:36.510 ,5,0,0.,12.0,0.,12.0,0.,12.0,0.,12.0
1979-07-19 23:55:48.510 ,5,0,0.,12.0,0.,12.0,0.,12.0,0.,12.0
1979-07-19 23:56:00.510 ,4,1,0.,12.0,0.,12.0,0.,12.0,0.,12.0
1979-07-19 23:56:12.510 ,4,1,0.,12.0,0.,12.0,0.,12.0,0.,12.0
1979-07-19 23:56:24.510 ,4,0,0.,12.0,0.,12.0,0.,12.0,0.,12.0
1979-07-19 23:56:36.510 ,4,0,0.,12.0,0.,12.0,0.,12.0,0.,12.0
1979-07-19 23:56:48.510 ,3,1,0.,12.0,0.,12.0,0.,12.0,0.,12.0
1979-07-19 23:57:00.510 ,3,1,0.,12.0,0.,12.0,0.,12.0,0.,12.0
1979-07-19 23:57:12.510 ,3,0,0.,12.0,0.,12.0,0.,12.0,0.,12.0
1979-07-19 23:57:24.510 ,3,0,0.,12.0,0.,12.0,0.,12.0,0.,12.0
1979-07-19 23:57:36.510 ,2,1,0.,12.0,0.,12.0,0.,12.0,0.,12.0
1979-07-19 23:57:48.510 ,2,1,1.,12.0,0.,12.0,0.,12.0,0.,12.0
1979-07-19 23:58:00.510 ,2,0,0.,12.0,0.,12.0,0.,12.0,0.,12.0
1979-07-19 23:58:12.510 ,2,0,0.,12.0,0.,12.0,0.,12.0,0.,12.0
1979-07-19 23:58:24.510 ,1,1,0.,12.0,0.,12.0,0.,12.0,0.,12.0
1979-07-19 23:58:36.510 ,1,1,0.,12.0,0.,12.0,0.,12.0,0.,12.0
1979-07-19 23:58:48.510 ,1,0,0.,12.0,0.,12.0,0.,12.0,0.,12.0
1979-07-19 23:59:00.510 ,1,0,0.,12.0,0.,12.0,0.,12.0,0.,12.0
1979-07-19 23:59:12.510 ,0,1,0.,12.0,0.,12.0,0.,12.0,0.,12.0
1979-07-19 23:59:24.510 ,0,1,0.,12.0,0.,12.0,0.,12.0,0.,12.0
1979-07-19 23:59:36.510 ,0,0,0.,12.0,0.,12.0,0.,12.0,0.,12.0
1979-07-19 23:59:48.510 ,0,0,0.,12.0,0.,12.0,0.,12.0,0.,12.0
1979-07-20 00:00:00.510 ,0,1,0.,12.0,0.,12.0,0.,12.0,0.,12.0
1979-07-20 00:00:12.510 ,0,1,0.,12.0,0.,12.0,0.,12.0,0.,12.0
